Winner, SD

12:11 AM CST on February 08, 2016 (GMT -0600)
Winner

Weather History for KICR - November, 2012

Change the Weather History Date:

Sunday, November 25, 2012

  Actual Average Record
Temperature  
Mean Temperature 37 °F 31 °F  
Max Temperature 45 °F 41 °F 61 °F (2011)
Min Temperature 29 °F 21 °F -4 °F (2010)
Degree Days  
Heating Degree Days 28 34  
Month to date heating degree days 620 695  
Since 1 July heating degree days 1165 1293  
Cooling Degree Days 0 0  
Month to date cooling degree days 0 0  
Year to date cooling degree days 1470 916  
Moisture  
Dew Point 26 °F    
Average Humidity 66    
Maximum Humidity 78    
Minimum Humidity 54    
Precipitation  
Precipitation 0.00 in 0.01 in 0.00 in (2016)
Month to date precipitation 0.01 0.54  
Year to date precipitation 10.16 21.17  
Sea Level Pressure  
Sea Level Pressure 30.08 in    
Wind  
Wind Speed 6 mph (North)    
Max Wind Speed 16 mph    
Max Gust Speed 20 mph    
Visibility 10 miles    
Events      
T = Trace of Precipitation, MM = Missing Value Source: NWS Daily Summary

Daily Weather History Graph

Daily Weather History Graph

Search for Another Location

Airport or City:

Trip Planner

Search our weather history database for the weather conditions in past years. The results will help you decide how hot, cold, wet, or windy it might be!

Date:

Astronomy

Nov. 25, 2012 Rise Set
Actual Time 7:45 AM CST 5:06 PM CST
Civil Twilight 7:14 AM CST 5:38 PM CST
Nautical Twilight 6:38 AM CST 6:13 PM CST
Astronomical Twilight 6:04 AM CST 6:47 PM CST
Moon 3:27 PM CST (11/25) 4:58 AM CST (11/25)
Length of Visible Light 10h 24m
Length of Day
9h 21m
Waxing Gibbous, 93% of the Moon is Illuminated
Nov 25
Waxing Gibbous
Nov 28
Full
Dec 6
Last Quarter
Dec 13
New
Dec 19
First Quarter

Hourly Weather History & Observations

Time (CST) Temp. Windchill Dew Point Humidity Pressure Visibility Wind Dir Wind Speed Gust Speed Precip Events Conditions
12:53 AM 39.9 °F 33.4 °F 30.9 °F 70% 29.98 in 10.0 mi NW 10.4 mph - N/A   Clear
1:53 AM 39.0 °F 32.3 °F 30.9 °F 73% 29.98 in 10.0 mi NNW 10.4 mph - N/A   Clear
2:53 AM 37.0 °F 29.8 °F 28.9 °F 73% 30.00 in 10.0 mi NNW 10.4 mph - N/A   Partly Cloudy
3:53 AM 36.0 °F 28.0 °F 28.0 °F 73% 30.01 in 10.0 mi NNW 11.5 mph - N/A   Clear
4:53 AM 34.0 °F 26.0 °F 26.1 °F 73% 30.02 in 10.0 mi North 10.4 mph - N/A   Overcast
5:53 AM 33.1 °F 26.1 °F 26.1 °F 75% 30.03 in 10.0 mi North 8.1 mph - N/A   Overcast
6:53 AM 32.0 °F - 26.1 °F 79% 30.06 in 10.0 mi Calm Calm - N/A   Overcast
7:53 AM 32.0 °F - 26.1 °F 79% 30.06 in 10.0 mi Calm Calm - N/A   Mostly Cloudy
8:53 AM 32.0 °F 27.5 °F 26.1 °F 79% 30.07 in 10.0 mi NNW 4.6 mph - N/A   Overcast
9:53 AM 34.0 °F - 27.0 °F 75% 30.07 in 10.0 mi Calm Calm - N/A   Overcast
10:53 AM 35.1 °F 28.6 °F 27.0 °F 72% 30.09 in 10.0 mi NW 8.1 mph - N/A   Overcast
11:53 AM 36.0 °F 32.1 °F 27.0 °F 70% 30.08 in 10.0 mi WNW 4.6 mph - N/A   Overcast
12:53 PM 37.0 °F 31.6 °F 26.1 °F 65% 30.06 in 10.0 mi NW 6.9 mph - N/A   Overcast
1:53 PM 37.9 °F - 25.0 °F 60% 30.04 in 10.0 mi Calm Calm - N/A   Overcast
2:53 PM 39.0 °F - 25.0 °F 57% 30.05 in 10.0 mi Calm Calm - N/A   Overcast
3:53 PM 39.0 °F 34.0 °F 24.1 °F 55% 30.06 in 10.0 mi NNW 6.9 mph - N/A   Overcast
4:53 PM 37.0 °F 32.4 °F 24.1 °F 59% 30.08 in 10.0 mi NNE 5.8 mph - N/A   Overcast
5:53 PM 36.0 °F 32.1 °F 24.1 °F 62% 30.10 in 10.0 mi NNE 4.6 mph - N/A   Overcast
6:53 PM 35.1 °F 31.0 °F 24.1 °F 64% 30.13 in 10.0 mi NNE 4.6 mph - N/A   Overcast
7:53 PM 33.1 °F 30.0 °F 25.0 °F 72% 30.16 in 10.0 mi NNE 3.5 mph - N/A   Overcast
8:53 PM 33.1 °F 30.0 °F 25.0 °F 72% 30.19 in 10.0 mi NNE 3.5 mph - N/A   Overcast
9:53 PM 32.0 °F 24.2 °F 25.0 °F 75% 30.22 in 10.0 mi NNE 9.2 mph - N/A   Overcast
10:53 PM 30.0 °F 21.7 °F 23.0 °F 75% 30.24 in 10.0 mi NE 9.2 mph - N/A   Overcast
11:53 PM 30.0 °F 20.5 °F 23.0 °F 75% 30.26 in 10.0 mi NE 11.5 mph - N/A   Overcast